"2010-04-20 00:00:00",40780,3.999,86.6,2.294,0.212,16.05,106.6197,16.22,17.28,24.92,0,110.7,13.26,17.03,48.6
"2010-04-20 00:00:30",40781,4.194,82.9,6.977,0.37,16.01,106.6194,16.22,17.29,24.93,0,110.7,13.26,17.03,44.9
"2010-04-20 00:01:00",40782,4.405,85.3,2.748,0.144,16.03,106.6194,16.22,17.28,24.74,0,110.7,13.26,17.03,47.3
"2010-04-20 00:01:30",40783,4.359,83.8,2.91,0.17,15.96,106.6194,16.22,17.28,24.71,0,110.7,13.26,17.03,45.8
"2010-04-20 00:02:00",40784,3.854,76.02,5.879,0.208,15.99,106.6194,16.22,17.26,24.7,0,110.7,13.26,17.03,38.0
"2010-04-20 00:02:30",40785,4.106,74.85,2.717,0.183,15.99,106.6194,16.22,17.27,24.73,0,110.7,13.26,17.03,36.8
"2010-04-20 00:03:00",40786,3.903,77.66,3.893,0.294,15.96,106.6194,16.22,17.27,24.62,0,110.7,13.26,17.03,39.7
"2010-04-20 00:03:30",40787,3.355,85.3,2.918,0.243,15.84,106.6194,16.22,17.27,24.58,0,110.7,13.26,17.03,47.3
"2010-04-20 00:04:00",40788,3.46,77.38,2.846,0.235,15.63,106.6194,16.22,17.26,24.55,0,110.7,13.26,17.03,39.4
"2010-04-20 00:04:30",40789,4.24,78.88,2.819,0.259,15.56,106.6194,16.22,17.26,24.53,0,110.7,13.27,17.03,40.9
"2010-04-20 00:05:00",40790,4.729,85.8,6.378,0.315,15.53,106.6194,16.22,17.26,24.59,0,110.7,13.27,17.03,47.8
"2010-04-20 00:05:30",40791,4.72,90.8,3.341,0.255,15.43,106.6194,16.22,17.26,24.76,0,110.7,13.27,17.03,52.8
"2010-04-20 00:06:00",40792,3.784,107,5.889,0.311,15.31,106.6194,16.22,17.27,24.64,0,110.7,13.27,17.03,69.0
"2010-04-20 00:06:30",40793,4.289,110.6,6.425,0.658,15.23,106.6197,16.22,17.27,24.78,0,110.7,13.27,17.03,72.6
"2010-04-20 00:07:00",40794,3.666,91.3,9.56,0.496,15.2,106.6194,16.22,17.28,24.74,0,110.7,13.27,17.03,53.3
"2010-04-20 00:07:30",40795,2.886,75,9.96,0.139,15.04,106.623,16.23,17.29,24.63,0,110.7,13.27,17.04,37.0
"2010-04-20 00:08:00",40796,2.727,68.76,4.07,0.105,14.99,106.636,16.26,17.29,24.53,0,110.7,13.27,17.07,30.8
"2010-04-20 00:08:30",40797,2.573,77.26,10.93,0.316,15.03,106.6517,16.3,17.31,24.46,0,110.7,13.27,17.11,39.3
"2010-04-20 00:09:00",40798,2.472,71.7,14.24,0.247,14.94,106.6535,16.31,17.32,24.38,0,110.7,13.26,17.12,33.7
"2010-04-20 00:09:30",40799,1.874,76.17,10.75,0.373,14.94,106.6534,16.31,17.32,24.36,0,110.7,13.26,17.12,38.2
"2010-04-20 00:10:00",40800,2.734,79.87,5.089,0.23,14.97,106.6644,16.34,17.36,24.55,0,110.7,13.26,17.14,41.9
"2010-04-20 00:10:30",40801,3.12,73.89,4.583,0.257,14.96,106.6852,16.39,17.36,24.61,0,110.7,13.26,17.20,35.9
"2010-04-20 00:11:00",40802,3.038,73.73,3.105,0.255,14.97,106.6869,16.39,17.37,24.53,0,110.7,13.26,17.20,35.7
"2010-04-20 00:11:30",40803,2.696,76.26,2.467,0.145,14.97,106.6883,16.4,17.4,24.33,0,110.7,13.26,17.21,38.3
"2010-04-20 00:12:00",40804,2.717,68.03,3.215,0.14,14.93,106.7128,16.46,17.42,24.26,0,110.7,13.26,17.27,30.0
"2010-04-20 00:12:30",40805,2.92,70.25,3.021,0.188,15,106.7207,16.48,17.44,24.13,0,110.7,13.26,17.29,32.2
"2010-04-20 00:13:00",40806,3.071,76.41,3.988,0.132,15.08,106.723,16.49,17.47,24.03,0,110.7,13.26,17.29,38.4
"2010-04-20 00:13:30",40807,3.286,77.04,3.611,0.112,15.08,106.7455,16.54,17.51,24.03,0,110.7,13.26,17.35,39.0
"2010-04-20 00:14:00",40808,3.15,79.74,2.472,0.13,15.18,106.7545,16.57,17.52,24.03,0,110.7,13.26,17.38,41.7
"2010-04-20 00:14:30",40809,3.023,79.48,3.388,0.141,15.21,106.7576,16.57,17.54,23.97,0,110.7,13.26,17.38,41.5
"2010-04-20 00:15:00",40810,3.381,79.67,6.051,0.192,15.26,106.7854,16.65,17.57,23.95,0,110.7,13.26,17.46,41.7
"2010-04-20 00:15:30",40811,3.481,91.4,3.228,0.352,15.39,106.7882,16.65,17.62,23.97,0,110.7,13.26,17.46,53.4
"2010-04-20 00:16:00",40812,3.821,90.3,3.562,0.268,15.42,106.7885,16.65,17.63,23.9,0,110.7,13.26,17.46,52.3
"2010-04-20 00:16:30",40813,3.631,88.6,7.776,0.308,15.61,106.8082,16.7,17.66,23.94,0,110.7,13.26,17.51,50.6
"2010-04-20 00:17:00",40814,3.9,91.8,4.065,0.226,15.6,106.8206,16.74,17.68,24.01,0,110.7,13.26,17.55,53.8
"2010-04-20 00:17:30",40815,3.579,94.1,1.857,0.316,15.55,106.822,16.74,17.7,23.86,0,110.7,13.26,17.55,56.1
"2010-04-20 00:18:00",40816,4.103,87.9,3.022,0.159,15.56,106.822,16.74,17.71,23.99,0,110.7,13.26,17.55,49.9
"2010-04-20 00:18:30",40817,4.028,88.4,2.537,0.349,15.5,106.822,16.74,17.74,23.98,0,110.7,13.26,17.55,50.4
"2010-04-20 00:19:00",40818,4.109,89.8,4.327,0.259,15.54,106.822,16.74,17.73,24.05,0,110.7,13.26,17.55,51.8
"2010-04-20 00:19:30",40819,4.516,87.3,4.937,0.497,15.58,106.822,16.74,17.73,24.24,0,110.7,13.26,17.55,49.3
"2010-04-20 00:20:00",40820,5.431,94.7,4.233,0.342,15.6,106.8217,16.74,17.71,24.43,0,110.7,13.26,17.55,56.7
"2010-04-20 00:20:30",40821,5.301,94.9,3.973,0.283,15.48,106.8119,16.71,17.71,24.22,0,110.7,13.26,17.52,56.9
"2010-04-20 00:21:00",40822,4.759,98.6,1.101,0.148,15.41,106.8113,16.71,17.69,24,0,110.7,13.26,17.52,60.6
"2010-04-20 00:21:30",40823,4.433,96.3,2.018,0.13,15.5,106.8082,16.7,17.67,23.93,0,110.7,13.26,17.51,58.3
"2010-04-20 00:22:00",40824,5.231,98.8,3.007,0.358,15.51,106.8051,16.7,17.68,23.96,0,110.7,13.26,17.51,60.8
"2010-04-20 00:22:30",40825,5.782,96.7,5.689,0.621,15.54,106.7972,16.68,17.68,23.84,0,110.7,13.26,17.49,58.7
"2010-04-20 00:23:00",40826,5.229,96.5,7.78,0.242,15.64,106.7894,16.66,17.69,23.92,0,110.7,13.26,17.47,58.5
"2010-04-20 00:23:30",40827,5.301,95.6,3.852,0.299,15.71,106.7885,16.65,17.68,24.15,0,110.7,13.26,17.46,57.6
"2010-04-20 00:24:00",40828,4.764,103.9,8.64,0.501,15.61,106.7882,16.65,17.69,24.25,0,110.7,13.26,17.46,65.9
"2010-04-20 00:24:30",40829,4.363,93.9,6.765,0.679,15.52,106.7882,16.65,17.69,24.27,0,110.7,13.26,17.46,55.9
"2010-04-20 00:25:00",40830,5.636,89.5,4.633,0.329,15.58,106.7882,16.65,17.68,24.1,0,110.7,13.26,17.46,51.5
"2010-04-20 00:25:30",40831,4.941,89.2,4.651,0.29,15.53,106.7882,16.65,17.68,24.02,0,110.7,13.26,17.46,51.2
"2010-04-20 00:26:00",40832,4.294,96.9,20.74,1.17,15.53,106.7882,16.65,17.68,23.9,0,110.7,13.26,17.46,58.9
"2010-04-20 00:26:30",40833,3.445,142.6,8.03,0.646,15.51,106.7874,16.65,17.66,23.79,0,110.7,13.26,17.46,104.6
"2010-04-20 00:27:00",40834,2.364,151.9,12,0.807,15.48,106.7697,16.6,17.65,23.82,0,110.7,13.26,17.41,113.9
"2010-04-20 00:27:30",40835,0.781,132.2,42.16,0.439,15.39,106.7581,16.58,17.66,23.66,0,110.7,13.26,17.39,94.2
"2010-04-20 00:28:00",40836,0.54,140.2,55.14,0.206,15.3,106.7559,16.57,17.65,23.57,0,110.7,13.26,17.38,102.2
"2010-04-20 00:28:30",40837,1.074,273.4,6.874,0.11,15.24,106.7545,16.57,17.64,23.51,0,110.7,13.26,17.38,235.4
"2010-04-20 00:29:00",40838,1.014,3.287,85.6,0.852,15.21,106.7545,16.57,17.65,23.46,0,110.7,13.26,17.38,325.3
"2010-04-20 00:29:30",40839,2.039,119.8,22.22,0.431,15.22,106.7545,16.57,17.65,23.36,0,110.7,13.26,17.38,81.8
"2010-04-20 00:30:00",40840,3.481,86.8,8.41,0.534,15.33,106.7545,16.57,17.64,23.42,0,110.7,13.26,17.38,48.8
"2010-04-20 00:30:30",40841,2.696,79.32,11.05,0.404,15.39,106.7545,16.57,17.64,23.66,0,110.7,13.26,17.38,41.3
"2010-04-20 00:31:00",40842,2.5,82.9,6.66,0.397,15.39,106.7548,16.57,17.63,23.76,0,110.7,13.26,17.38,44.9
"2010-04-20 00:31:30",40843,3.188,87.7,3.882,0.164,15.45,106.7564,16.57,17.63,23.93,0,110.7,13.26,17.38,49.7
"2010-04-20 00:32:00",40844,2.916,98.5,4.811,0.13,15.39,106.7638,16.59,17.65,23.94,0,110.7,13.26,17.40,60.5
"2010-04-20 00:32:30",40845,3.1,98.3,3.341,0.215,15.44,106.7736,16.61,17.64,23.85,0,110.7,13.26,17.42,60.3
"2010-04-20 00:33:00",40846,2.913,104.2,5.313,0.185,15.34,106.777,16.62,17.66,23.82,0,110.7,13.26,17.43,66.2
"2010-04-20 00:33:30",40847,2.719,104.5,3.958,0.268,15.35,106.7821,16.64,17.65,23.84,0,110.7,13.26,17.45,66.5
"2010-04-20 00:34:00",40848,3.4,98.1,4.171,0.129,15.37,106.7854,16.65,17.66,24.07,0,110.7,13.26,17.46,60.1
"2010-04-20 00:34:30",40849,4.188,101.1,8.57,0.207,15.47,106.7866,16.65,17.67,24.22,0,110.7,13.26,17.46,63.1
"2010-04-20 00:35:00",40850,4.362,101.5,5.872,0.215,15.52,106.7868,16.65,17.66,24.28,0,110.7,13.26,17.46,63.5
"2010-04-20 00:35:30",40851,4.549,112,2.84,0.19,15.42,106.784,16.64,17.67,23.98,0,110.7,13.26,17.45,74.0
"2010-04-20 00:36:00",40852,4.623,106.1,4.556,0.238,15.46,106.773,16.61,17.67,24.06,0,110.7,13.26,17.42,68.1
"2010-04-20 00:36:30",40853,4.551,102.4,2.322,0.1,15.41,106.7615,16.58,17.65,23.94,0,110.7,13.26,17.39,64.4
"2010-04-20 00:37:00",40854,4.257,102.5,2.261,0.087,15.47,106.7556,16.57,17.64,23.9,0,110.7,13.26,17.38,64.5
"2010-04-20 00:37:30",40855,4.113,104.2,2.489,0.301,15.45,106.7545,16.57,17.65,23.84,0,110.7,13.26,17.38,66.2
"2010-04-20 00:38:00",40856,4.687,105,5.721,0.227,15.52,106.7545,16.57,17.65,23.91,0,110.7,13.26,17.38,67.0
"2010-04-20 00:38:30",40857,5.137,100.5,2.686,0.167,15.63,106.7545,16.57,17.63,23.98,0,110.7,13.26,17.38,62.5
"2010-04-20 00:39:00",40858,4.776,104.5,7.424,0.171,15.62,106.7548,16.57,17.63,24,0,110.7,13.26,17.38,66.5
"2010-04-20 00:39:30",40859,4.982,107.7,3.685,0.134,15.69,106.7542,16.57,17.62,24,0,110.7,13.26,17.38,69.7
"2010-04-20 00:40:00",40860,5.074,108.3,3.324,0.358,15.66,106.748,16.55,17.62,23.67,0,110.7,13.26,17.36,70.3
"2010-04-20 00:40:30",40861,4.949,112.3,5.635,0.192,15.63,106.7314,16.51,17.6,23.67,0,110.7,13.26,17.32,74.3
"2010-04-20 00:41:00",40862,4.241,113.1,6.849,0.464,15.6,106.7229,16.49,17.6,23.78,0,110.7,13.26,17.29,75.1
"2010-04-20 00:41:30",40863,4.035,103.4,3.079,0.207,15.62,106.7207,16.48,17.59,23.92,0,110.7,13.26,17.29,65.4
"2010-04-20 00:42:00",40864,4.407,97.7,5.494,0.24,15.73,106.7207,16.48,17.59,24.2,0,110.7,13.26,17.29,59.7
"2010-04-20 00:42:30",40865,4.935,98.5,4.251,0.305,15.77,106.7207,16.48,17.58,24.26,0,110.7,13.26,17.29,60.5
"2010-04-20 00:43:00",40866,4.315,107.2,4.859,0.287,15.66,106.721,16.48,17.57,23.84,0,110.7,13.26,17.29,69.2
"2010-04-20 00:43:30",40867,4.037,111.2,2.934,0.221,15.66,106.7207,16.48,17.56,23.68,0,110.7,13.26,17.29,73.2
"2010-04-20 00:44:00",40868,3.949,102.5,4.121,0.222,15.7,106.7216,16.48,17.56,23.58,0,110.7,13.26,17.29,64.5
"2010-04-20 00:44:30",40869,3.636,101.3,3.514,0.194,15.7,106.7213,16.48,17.55,23.48,0,110.7,13.26,17.29,63.3
"2010-04-20 00:45:00",40870,3.714,97.9,4.01,0.14,15.75,106.7223,16.48,17.54,23.47,0,110.7,13.26,17.29,59.9
"2010-04-20 00:45:30",40871,3.889,98.9,6.528,0.157,15.67,106.7202,16.48,17.54,23.42,0,110.7,13.26,17.29,60.9
"2010-04-20 00:46:00",40872,3.899,103.1,3.821,0.323,15.65,106.7192,16.48,17.53,23.47,0,110.7,13.26,17.29,65.1
"2010-04-20 00:46:30",40873,3.333,95.2,4.703,0.218,15.67,106.7134,16.46,17.52,23.38,0,110.7,13.26,17.27,57.2
"2010-04-20 00:47:00",40874,2.909,100.2,3.937,0.173,15.59,106.7084,16.45,17.52,23.29,0,110.7,13.26,17.26,62.2
"2010-04-20 00:47:30",40875,2.89,101.2,2.876,0.118,15.55,106.7071,16.44,17.52,23.32,0,110.7,13.26,17.25,63.2
"2010-04-20 00:48:00",40876,3.468,97.3,1.677,0.45,15.62,106.7042,16.44,17.52,23.45,0,110.7,13.26,17.25,59.3
"2010-04-20 00:48:30",40877,3.983,96.2,3.175,0.124,15.65,106.7064,16.44,17.53,23.82,0,110.7,13.26,17.25,58.2
"2010-04-20 00:49:00",40878,4.038,101,2.158,0.254,15.59,106.702,16.43,17.52,23.82,0,110.7,13.26,17.24,63.0
"2010-04-20 00:49:30",40879,4.065,101.8,1.046,0.104,15.55,106.7062,16.44,17.52,23.86,0,110.7,13.26,17.25,63.8
"2010-04-20 00:50:00",40880,3.941,94.9,3.381,0.159,15.68,106.6996,16.43,17.51,23.88,0,110.7,13.26,17.23,56.9
"2010-04-20 00:50:30",40881,4.114,93.2,1.523,0.163,15.68,106.703,16.43,17.51,23.88,0,110.7,13.26,17.24,55.2
"2010-04-20 00:51:00",40882,4.094,95.4,3.668,0.097,15.68,106.701,16.43,17.51,23.88,0,110.7,13.26,17.24,57.4
"2010-04-20 00:51:30",40883,3.999,100.1,1.965,0.197,15.67,106.701,16.43,17.51,23.87,0,110.7,13.27,17.24,62.1
"2010-04-20 00:52:00",40884,3.902,99.7,2.198,0.051,15.7,106.7022,16.43,17.5,23.82,0,110.7,13.27,17.24,61.7
"2010-04-20 00:52:30",40885,3.934,99.5,2.465,0.088,15.76,106.7061,16.44,17.49,23.81,0,110.7,13.27,17.25,61.5
"2010-04-20 00:53:00",40886,3.939,94.5,5.594,0.17,15.72,106.7058,16.44,17.49,23.68,0,110.7,13.27,17.25,56.5
"2010-04-20 00:53:30",40887,3.846,92.9,1.768,0.359,15.69,106.707,16.44,17.49,23.64,0,110.7,13.27,17.25,54.9
"2010-04-20 00:54:00",40888,4.202,96.1,2.949,0.478,15.76,106.7094,16.45,17.49,23.67,0,110.7,13.27,17.26,58.1
"2010-04-20 00:54:30",40889,4.084,99,3.825,0.127,15.71,106.7122,16.46,17.48,23.73,0,110.7,13.27,17.27,61.0
"2010-04-20 00:55:00",40890,4.217,91.5,2.395,0.174,15.79,106.7122,16.46,17.47,23.72,0,110.7,13.27,17.27,53.5
"2010-04-20 00:55:30",40891,4.187,96.4,2.216,0.172,15.75,106.7124,16.46,17.49,23.73,0,110.7,13.27,17.27,58.4
"2010-04-20 00:56:00",40892,4.082,93.7,1.538,0.145,15.77,106.7124,16.46,17.48,23.74,0,110.7,13.27,17.27,55.7
"2010-04-20 00:56:30",40893,4.323,95.5,4.424,0.311,15.8,106.714,16.46,17.47,23.75,0,110.7,13.27,17.27,57.5
"2010-04-20 00:57:00",40894,4.275,99.7,5.888,0.34,15.77,106.714,16.46,17.47,23.73,0,110.7,13.27,17.27,61.7
"2010-04-20 00:57:30",40895,4.532,105.6,1.335,0.134,15.74,106.7101,16.45,17.46,23.98,0,110.7,13.27,17.26,67.6
"2010-04-20 00:58:00",40896,4.463,98,4.986,0.227,15.83,106.7006,16.43,17.45,23.92,0,110.7,13.27,17.24,60.0
"2010-04-20 00:58:30",40897,5.057,91.7,3.577,0.358,15.84,106.6917,16.41,17.47,23.76,0,110.7,13.27,17.21,53.7
"2010-04-20 00:59:00",40898,4.913,96,2.842,0.403,15.81,106.6832,16.38,17.44,23.79,0,110.7,13.27,17.19,58.0
"2010-04-20 00:59:30",40899,4.435,96.8,1.189,0.083,15.97,106.6838,16.38,17.45,24.08,0,110.7,13.26,17.19,58.8
"2010-04-20 01:00:00",40900,4.384,100.1,1.874,0.2,15.96,106.6859,16.39,17.43,24.03,0,110.7,13.26,17.20,62.1
"2010-04-20 01:00:30",40901,4.569,102.7,1.054,0.163,16,106.6877,16.39,17.44,24.02,0,110.7,13.26,17.20,64.7
"2010-04-20 01:01:00",40902,4.438,99.5,1.216,0.113,16.2,106.6874,16.39,17.42,23.85,0,110.7,13.26,17.20,61.5
"2010-04-20 01:01:30",40903,4.602,97.2,1.393,0.107,16.23,106.6847,16.39,17.41,23.78,0,110.7,13.26,17.20,59.2
"2010-04-20 01:02:00",40904,4.517,94.6,1.014,0.122,16.27,106.6703,16.35,17.4,24,0,110.7,13.26,17.16,56.6
"2010-04-20 01:02:30",40905,4.306,98,2.169,0.222,16.24,106.6591,16.32,17.39,24.12,0,110.7,13.26,17.13,60.0
"2010-04-20 01:03:00",40906,4.974,99.1,2.72,0.251,16.24,106.6554,16.31,17.37,24.1,0,110.7,13.26,17.12,61.1
"2010-04-20 01:03:30",40907,4.656,94.6,2.286,0.119,16.11,106.6554,16.31,17.37,24.23,0,110.7,13.26,17.12,56.6
"2010-04-20 01:04:00",40908,4.616,93.3,4.548,0.283,16.23,106.6551,16.31,17.35,24.29,0,110.7,13.26,17.12,55.3
"2010-04-20 01:04:30",40909,4.389,90.6,1.601,0.191,16.23,106.6377,16.27,17.35,24.22,0,110.7,13.27,17.08,52.6
"2010-04-20 01:05:00",40910,4.156,89.4,2.587,0.117,16.23,106.6227,16.23,17.33,24.21,0,110.7,13.27,17.04,51.4
"2010-04-20 01:05:30",40911,4.188,92.4,2.45,0.275,16.28,106.6216,16.23,17.32,24.22,0,110.7,13.27,17.03,54.4
"2010-04-20 01:06:00",40912,4.249,90.8,2.591,0.196,16.3,106.6216,16.23,17.3,24.31,0,110.7,13.27,17.03,52.8
"2010-04-20 01:06:30",40913,4.413,91.9,3.276,0.577,16.35,106.6163,16.21,17.3,24.39,0,110.7,13.27,17.02,53.9
"2010-04-20 01:07:00",40914,4.894,87.4,0.805,0.194,16.29,106.6008,16.17,17.27,24.18,0,110.7,13.27,16.98,49.4
"2010-04-20 01:07:30",40915,4.281,86.5,1.99,0.339,16.35,106.5878,16.14,17.25,24.17,0,110.7,13.27,16.95,48.5
"2010-04-20 01:08:00",40916,3.682,78.3,2.639,0.236,16.33,106.5878,16.14,17.25,24.26,0,110.7,13.27,16.95,40.3
"2010-04-20 01:08:30",40917,4.11,71.77,4.948,0.13,16.31,106.5867,16.14,17.22,24.2,0,110.7,13.27,16.94,33.8
"2010-04-20 01:09:00",40918,4.657,73.32,2.013,0.13,16.37,106.5681,16.09,17.2,24.28,0,110.7,13.28,16.90,35.3
"2010-04-20 01:09:30",40919,4.618,74.65,2.602,0.138,16.37,106.5546,16.05,17.18,24.29,0,110.6,13.28,16.86,36.7
"2010-04-20 01:10:00",40920,4.143,81.4,2.52,0.21,16.4,106.5541,16.05,17.16,24.38,0,110.6,13.28,16.86,43.4
"2010-04-20 01:10:30",40921,3.67,78.95,3.752,0.214,16.38,106.5541,16.05,17.14,24.46,0,110.6,13.28,16.86,40.9
"2010-04-20 01:11:00",40922,3.475,82,3.03,0.13,16.41,106.5459,16.03,17.14,24.43,0,110.6,13.28,16.84,44.0
"2010-04-20 01:11:30",40923,3.131,79.08,3.014,0.196,16.4,106.531,15.99,17.12,24.58,0,110.6,13.28,16.80,41.1
"2010-04-20 01:12:00",40924,3.157,77.18,3.416,0.186,16.39,106.5203,15.97,17.09,24.54,0,110.6,13.28,16.77,39.2
"2010-04-20 01:12:30",40925,3.292,74.25,1.96,0.146,16.33,106.5203,15.97,17.08,24.56,0,110.6,13.28,16.77,36.2
"2010-04-20 01:13:00",40926,3.413,76.96,2.241,0.158,16.38,106.52,15.96,17.06,24.58,0,110.6,13.28,16.77,39.0
"2010-04-20 01:13:30",40927,4.065,77.79,1.696,0.193,16.36,106.5114,15.94,17.06,24.9,0,110.6,13.28,16.75,39.8
"2010-04-20 01:14:00",40928,4.394,79.07,1.707,0.178,16.38,106.4934,15.9,17.04,25.39,0,110.6,13.28,16.70,41.1
"2010-04-20 01:14:30",40929,4.567,79.44,1.907,0.185,16.37,106.4958,15.9,17.02,25.92,0,110.6,13.28,16.71,41.4
"2010-04-20 01:15:00",40930,4.449,79.95,1.214,0.078,16.4,106.4988,15.91,17.01,26.22,0,110.6,13.28,16.72,41.9
"2010-04-20 01:15:30",40931,4.571,75.91,1.446,0.068,16.31,106.5054,15.93,16.99,26.42,0,110.6,13.28,16.74,37.9
"2010-04-20 01:16:00",40932,4.429,73.42,3.182,0.188,16.43,106.4933,15.9,16.98,25.83,0,110.6,13.28,16.70,35.4
"2010-04-20 01:16:30",40933,4.282,70.38,2.025,0.123,16.43,106.4819,15.87,16.96,25.42,0,110.6,13.28,16.67,32.4
"2010-04-20 01:17:00",40934,3.742,74.21,2.369,0.111,16.45,106.4824,15.87,16.93,25.29,0,110.6,13.28,16.68,36.2
"2010-04-20 01:17:30",40935,3.79,75.03,1.743,0.122,16.47,106.4851,15.88,16.93,25.11,0,110.6,13.28,16.68,37.0
"2010-04-20 01:18:00",40936,3.565,74.98,1.315,0.162,16.44,106.4849,15.88,16.9,25.06,0,110.6,13.28,16.68,37.0
"2010-04-20 01:18:30",40937,3.272,76.33,1.914,0.206,16.44,106.4714,15.84,16.9,25.21,0,110.6,13.28,16.65,38.3
"2010-04-20 01:19:00",40938,3.583,78.47,2.276,0.138,16.44,106.4551,15.8,16.89,25.44,0,110.6,13.28,16.61,40.5
"2010-04-20 01:19:30",40939,3.313,79.07,1.612,0.072,16.42,106.4543,15.8,16.87,25.7,0,110.6,13.28,16.60,41.1
"2010-04-20 01:20:00",40940,3.622,71.58,2.988,0.15,16.43,106.4549,15.8,16.86,25.56,0,110.6,13.28,16.61,33.6
"2010-04-20 01:20:30",40941,3.956,70.74,3.3,0.08,16.37,106.4549,15.8,16.84,25.53,0,110.6,13.28,16.61,32.7
"2010-04-20 01:21:00",40942,3.889,71.12,4.65,0.123,16.42,106.4512,15.79,16.82,25.86,0,110.6,13.28,16.60,33.1
"2010-04-20 01:21:30",40943,3.942,73.29,5.274,0.167,16.39,106.4366,15.75,16.83,26.06,0,110.6,13.29,16.56,35.3
"2010-04-20 01:22:00",40944,3.781,83.6,2.863,0.164,16.42,106.4211,15.71,16.81,26.3,0,110.6,13.29,16.52,45.6
"2010-04-20 01:22:30",40945,3.922,91.3,2.122,0.249,16.45,106.4211,15.71,16.79,26.31,0,110.6,13.29,16.52,53.3
"2010-04-20 01:23:00",40946,3.631,83.5,4.524,0.248,16.47,106.4211,15.71,16.78,26.09,0,110.6,13.3,16.52,45.5
"2010-04-20 01:23:30",40947,4.22,83.5,1.89,0.188,16.48,106.4211,15.71,16.78,25.96,0,110.6,13.3,16.52,45.5
"2010-04-20 01:24:00",40948,4.567,83.3,2.119,0.26,16.52,106.416,15.7,16.76,25.86,0,110.6,13.3,16.51,45.3
"2010-04-20 01:24:30",40949,4.226,86.1,2.231,0.229,16.49,106.4011,15.66,16.75,26.06,0,110.6,13.3,16.47,48.1
"2010-04-20 01:25:00",40950,4.55,79.73,2.652,0.194,16.46,106.3887,15.63,16.73,26.43,0,110.6,13.3,16.44,41.7
"2010-04-20 01:25:30",40951,5.596,76.51,6.745,0.999,16.2,106.3873,15.62,16.73,27.42,0,110.6,13.3,16.43,38.5
"2010-04-20 01:26:00",40952,6.901,81.1,5.616,0.327,15.92,106.3873,15.62,16.72,31.13,0,110.6,13.3,16.43,43.1
"2010-04-20 01:26:30",40953,6.62,80.3,6.985,0.392,16.09,106.3873,15.62,16.71,32.03,0,110.6,13.3,16.43,42.3
"2010-04-20 01:27:00",40954,6.501,80.7,3.784,0.335,16.18,106.3797,15.61,16.69,31.83,0,110.6,13.3,16.41,42.7
"2010-04-20 01:27:30",40955,5.551,83.8,3.564,0.514,16.31,106.356,15.54,16.67,31.03,0,110.6,13.3,16.35,45.8
"2010-04-20 01:28:00",40956,5.235,81,4.115,0.303,16.42,106.3535,15.54,16.65,29.64,0,110.6,13.3,16.34,43.0
"2010-04-20 01:28:30",40957,5.441,86.8,8.3,0.511,16.2,106.3524,15.54,16.64,30.36,0,110.6,13.3,16.34,48.8
"2010-04-20 01:29:00",40958,5.992,89.3,4.295,0.487,16.14,106.3265,15.47,16.62,31.97,0,110.6,13.3,16.28,51.3
"2010-04-20 01:29:30",40959,6.332,90.9,4.493,0.444,16.25,106.3215,15.46,16.59,32.12,0,110.6,13.3,16.26,52.9
"2010-04-20 01:30:00",40960,6.118,101,4.27,0.318,16.33,106.3245,15.46,16.57,31.68,0,110.5,13.3,16.27,63.0
"2010-04-20 01:30:30",40961,6.045,99.5,2.645,0.198,16.35,106.3023,15.41,16.55,31.62,0,110.5,13.3,16.21,61.5
"2010-04-20 01:31:00",40962,7.036,95.1,3.91,0.65,16.29,106.3003,15.4,16.53,32.78,0,110.5,13.3,16.21,57.1
"2010-04-20 01:31:30",40963,7.45,97.1,3.013,0.193,16.29,106.3054,15.42,16.52,34.55,0,110.6,13.3,16.22,59.1
"2010-04-20 01:32:00",40964,6.853,101,2.848,0.373,16.37,106.2907,15.38,16.49,35.48,0,110.5,13.31,16.18,63.0
"2010-04-20 01:32:30",40965,6.665,103.5,3.034,0.328,16.4,106.2778,15.34,16.46,33.35,0,110.6,13.31,16.15,65.5
"2010-04-20 01:33:00",40966,6.532,107.5,2.71,0.33,16.32,106.2814,15.35,16.45,34.53,0,110.5,13.3,16.16,69.5
"2010-04-20 01:33:30",40967,6.605,111.9,3.378,0.417,16.44,106.2833,15.36,16.42,32.21,0,110.5,13.3,16.16,73.9
"2010-04-20 01:34:00",40968,6.096,112.5,3.56,0.403,16.45,106.2665,15.32,16.41,31.81,0,110.5,13.3,16.12,74.5
"2010-04-20 01:34:30",40969,5.664,112.7,2.066,0.21,16.41,106.2545,15.28,16.39,31.39,0,110.5,13.3,16.09,74.7
"2010-04-20 01:35:00",40970,5.468,111.7,3.147,0.211,16.44,106.2542,15.28,16.37,31.58,0,110.5,13.3,16.09,73.7
"2010-04-20 01:35:30",40971,5.509,113.4,2.488,0.205,16.4,106.2542,15.28,16.34,31.96,0,110.5,13.3,16.09,75.4
"2010-04-20 01:36:00",40972,5.772,119.6,1.423,0.145,16.23,106.2542,15.28,16.34,37.2,0,110.5,13.3,16.09,81.6
"2010-04-20 01:36:30",40973,6.292,110.9,3.222,0.196,16.25,106.2492,15.27,16.33,39.15,0,110.5,13.3,16.08,72.9
"2010-04-20 01:37:00",40974,6.186,110.9,4.767,0.181,16.24,106.2308,15.22,16.32,39.83,0,110.5,13.3,16.03,72.9
"2010-04-20 01:37:30",40975,6.188,109.3,1.956,0.219,16.28,106.2204,15.2,16.31,40.4,0,110.5,13.3,16.00,71.3
"2010-04-20 01:38:00",40976,6.467,108.6,2.061,0.259,16.28,106.2204,15.2,16.29,40.44,0,110.5,13.3,16.00,70.6
"2010-04-20 01:38:30",40977,6.934,115,1.596,0.207,16.32,106.219,15.19,16.28,40.84,0,110.5,13.31,16.00,77.0
"2010-04-20 01:39:00",40978,6.972,118.6,1.427,0.098,16.38,106.1976,15.14,16.26,41.63,0,110.5,13.31,15.94,80.6
"2010-04-20 01:39:30",40979,7.053,123.2,1.664,0.101,16.44,106.1872,15.11,16.25,41.68,0,110.5,13.31,15.92,85.2
"2010-04-20 01:40:00",40980,7.043,123.7,2.103,0.129,16.48,106.1866,15.11,16.23,40.06,0,110.5,13.31,15.92,85.7
"2010-04-20 01:40:30",40981,7.086,127.4,2.774,0.191,16.37,106.1866,15.11,16.21,41.41,0,110.5,13.31,15.92,89.4
"2010-04-20 01:41:00",40982,7.022,131.1,1.609,0.306,16.53,106.1846,15.11,16.2,39.74,0,110.5,13.31,15.91,93.1
"2010-04-20 01:41:30",40983,6.69,132,0.961,0.106,16.4,106.1703,15.07,16.17,41.16,0,110.5,13.32,15.87,94.0
"2010-04-20 01:42:00",40984,6.099,132.7,1.75,0.32,16.61,106.1553,15.03,16.15,37.39,0,110.5,13.32,15.84,94.7
"2010-04-20 01:42:30",40985,6.111,129.9,1.839,0.156,16.47,106.1528,15.02,16.14,34.98,0,110.5,13.32,15.83,91.9
"2010-04-20 01:43:00",40986,5.95,127.1,2.228,0.191,16.28,106.1528,15.02,16.12,41.06,0,110.5,13.32,15.83,89.1
"2010-04-20 01:43:30",40987,5.879,124.8,3.451,0.304,16.28,106.1528,15.02,16.11,41.91,0,110.5,13.32,15.83,86.8
"2010-04-20 01:44:00",40988,6.722,109.6,1.194,0.286,16.31,106.1528,15.02,16.1,42.12,0,110.5,13.32,15.83,71.6
"2010-04-20 01:44:30",40989,6.726,112.9,2.102,0.229,16.29,106.1531,15.02,16.11,42.19,0,110.5,13.32,15.83,74.9
"2010-04-20 01:45:00",40990,6.56,110.1,3.359,0.328,16.33,106.1475,15.01,16.09,42.37,0,110.5,13.32,15.82,72.1
"2010-04-20 01:45:30",40991,6.627,115.3,3.053,0.221,16.3,106.1407,14.99,16.07,42.55,0,110.5,13.32,15.80,77.3
"2010-04-20 01:46:00",40992,6.101,120.1,2.215,0.396,16.35,106.1247,14.95,16.08,42.75,0,110.5,13.32,15.76,82.1
"2010-04-20 01:46:30",40993,6.661,125.4,2.846,0.165,16.39,106.1223,14.95,16.07,42.85,0,110.5,13.32,15.75,87.4
"2010-04-20 01:47:00",40994,6.226,127.8,2.202,0.259,16.33,106.1259,14.96,16.06,43.03,0,110.5,13.32,15.76,89.8
"2010-04-20 01:47:30",40995,6.054,130.4,1.594,0.477,16.33,106.1289,14.96,16.03,43.11,0,110.5,13.32,15.77,92.4
"2010-04-20 01:48:00",40996,5.833,127.8,2.202,0.172,16.26,106.1281,14.96,16.02,43.2,0,110.5,13.32,15.77,89.8
"2010-04-20 01:48:30",40997,6.234,124.2,4.288,0.123,16.29,106.1221,14.95,16.01,43.42,0,110.5,13.32,15.75,86.2
"2010-04-20 01:49:00",40998,6.243,128.7,3.372,0.267,16.25,106.108,14.91,16.01,43.64,0,110.5,13.32,15.71,90.7
"2010-04-20 01:49:30",40999,6.3,126,3.292,0.344,16.25,106.1067,14.91,16,43.84,0,110.5,13.33,15.71,88.0
"2010-04-20 01:50:00",41000,5.813,129.2,2.218,0.3,16.27,106.1112,14.92,15.98,43.71,0,110.5,13.32,15.72,91.2